Regional Weather Roundup
Issued by NWS

Home | Current Version | Previous Version | Graphics & Text | Print | Product List | Glossary On
Versions: 1 2 3 4 5 6 7 8 9 10 11 12 13 14 15 16 17 18 19 20 21 22 23 24 25 26 27
000
ASUS45 KBOU 232007
RWRCO

WEATHER ROUNDUP FOR COLORADO
NATIONAL WEATHER SERVICE DENVER/BOULDER CO
200 PM MDT SAT SEP 23 2017

NOTE: "FAIR" INDICATES FEW OR NO CLOUDS BELOW 12000 FEET WITH NO
SIGNIFICANT WEATHER AND/OR OBSTRUCTIONS TO VISIBILITY.

COZ001>005-013-030-031-232100-
...NORTHWEST COLORADO...

CITY           SKY/WX    TMP DP  RH WIND       PRES   REMARKS
CRAIG          CLOUDY    54  38  54 S9        29.92R
HAYDEN         FAIR      46  41  82 E17       29.96F
MEEKER         CLOUDY    52  42  69 SE10G18   29.91F
RABBIT EARS PA SNOW      32  32 100 SW12G22   30.08S VSB 1/4 WCI  23
STEAMBOAT SPGS CLOUDY    43  41  94 E5        29.99F
WALDEN         CLOUDY    39  36  87 N10       30.04S
$$

COZ006>008-011-232100-
...WEST CENTRAL VALLEYS...

CITY           SKY/WX    TMP DP  RH WIND       PRES   REMARKS
GRAND JUNCTION FAIR      61  43  51 SE20G26   29.83F
MONTROSE       CLOUDY    55  44  66 SE12      29.94F
EAGLE          CLOUDY    47  43  86 E7        29.99F
RIFLE          LGT RAIN  53  48  83 E7        29.92F
DELTA          NOT AVBL
NUCLA          CLOUDY    55  43  62 E5        29.91F
$$

COZ017>023-064>068-232100-
...SOUTHWEST COLORADO...

CITY           SKY/WX    TMP DP  RH WIND       PRES   REMARKS
DURANGO        CLOUDY    54  41  61 W16G23    29.95F
CORTEZ         FAIR      59  47  64 S13       29.87F
PAGOSA SPRINGS LGT RAIN  51  42  72 W8        30.00R
TELLURIDE      LGT RAIN  41  39  91 CALM      30.04F
WOLF CREEK PAS RAIN      32  32 100 SW22G44   30.16R VSB<1/4 WCI  19
$$

COZ009-010-012-014-032>034-037-058>063-232100-
...CENTRAL COLORADO...

CITY           SKY/WX    TMP DP  RH WIND       PRES   REMARKS
ASPEN          LGT RAIN  44  41  89 NE5       30.00S
BUENA VISTA    CLOUDY    57  45  63 SE12      29.91F
COPPER MTN     CLOUDY    50  28  43 S32G38    30.07F
BERTHOUD PASS  HAZE      34  27  75 S29G38    30.15S VSB 1/4 WCI  20
COTTONWOOD PAS CLOUDY    54  46  76 SE13      30.00F
GUNNISON       FAIR      55  40  56 SW8       29.94S
KREMMLING      RAIN      50  43  76 W10       30.01R
LEADVILLE      PTSUNNY   53  32  44 S23G33    29.97F
MONARCH PASS   CLOUDY    37  34  87 S35G52    30.22F
SALIDA         CLOUDY    61  49  65 S6        29.96F
SUNLIGHT       CLOUDY    34  34 100 S12       30.11S FOG     WCI  25
WILKERSON PASS DRIZZLE   45  39  81 SW8G17    30.14F
$$

COZ069>075-232100-
...SAN LUIS VALLEY/SANGRE DE CRISTO MOUNTAINS...

CITY           SKY/WX    TMP DP  RH WIND       PRES   REMARKS
ALAMOSA        FAIR      70  40  33 S23G33    29.88F
DEL NORTE      CLOUDY    54  46  74 SW9G16    29.95R
LA VETA PASS   PTSUNNY   57  34  41 S29       30.19F
SAGUACHE       CLOUDY    59  43  55 W7        29.92F
$$

COZ035-036-038>040-232100-
...NORTHERN COLORADO FRONT RANGE...

CITY           SKY/WX    TMP DP  RH WIND       PRES   REMARKS
DENVER INTL AP CLOUDY    54  43  66 N12       29.92F
DMNS CITY PARK   N/A     52  42  70 NE14      29.93S
AURORA         CLOUDY    52  44  73 N6        29.93F
FRONT RANGE AP CLOUDY    55  45  67 VRB7      29.93F
ERIE MUNI ARPT CLOUDY    53  42  66 NE7       29.99F
BOULDER MUN AP CLOUDY    52  43  71 N3        29.94F
CENTENNIAL     CLOUDY    53  44  71 N10       29.93F
BROOMFIELD     CLOUDY    52  43  71 NW6       29.95F
FORT COLLINS   CLOUDY    51  42  71 E7        29.96F
LONGMONT       CLOUDY    53  44  71 NE6       29.96F HAZE
$$

COZ041-046-047-076>085-087-088-232100-
...PIKES PEAK/PALMER DIVIDE AND SOUTHERN FOOTHILLS...

CITY           SKY/WX    TMP DP  RH WIND       PRES   REMARKS
COLO. SPRINGS  PTSUNNY   60  51  72 SE20      29.93F
A. F. ACADEMY  PTSUNNY   63  47  57 S16       29.92F
SCHRIEVER AFB  CLOUDY    56  50  80 E17       29.94F
CHEYENNE MTN   PTSUNNY   57  48  71 SE9       29.91F
ELLICOTT         N/A    N/A N/A N/A SE22G29   29.91F
FALCON         CLOUDY    56  48  73 SE14G21   29.97F
FORT CARSON    CLOUDY    60  51  70 E14       29.90F
LIMON            N/A    N/A N/A N/A MISG      29.92F
MONUMENT HILL  PTSUNNY   63  46  55 SE20G26   29.94F
CANON CITY     CLOUDY    66  50  55 E15       29.87R
WALSENBURG     MOCLDY    72  50  46 S20G26    29.86S
TRINIDAD       CLOUDY    64  53  67 S16       29.89F
$$

COZ042>045-048>051-090-091-232100-
...NORTHEAST COLORADO...

CITY           SKY/WX    TMP DP  RH WIND       PRES   REMARKS
GREELEY ARPT   CLOUDY    50  44  80 NE6       29.95F
AKRON          LGT RAIN  48  46  93 E9        29.95S
BURLINGTON     PTSUNNY   62  50  64 NE7       29.94F
WRAY           PTSUNNY   55  50  82 CALM      29.96S
YUMA           LGT RAIN  50  48  93 E9        29.94F
STERLING       RAIN      46  46 100 N12       29.91R
HOLYOKE        CLOUDY    55  52  88 NE8       29.95F
FORT MORGAN    CLOUDY    51  43  74 NE6       29.96R
$$

COZ086-089-092>099-232100-
...SOUTHEAST COLORADO...

CITY           SKY/WX    TMP DP  RH WIND       PRES   REMARKS
PUEBLO         CLOUDY    62  54  74 E18       29.84F
LA JUNTA       LGT RAIN  61  59  93 E10       29.85F
LAMAR          RAIN      62  59  90 NE3       29.88F FOG
SPRINGFIELD      N/A     67  57  70 SW7       29.89F
$$




USA.gov is the U.S. government's official web portal to all federal, state and local government web resources and services.